IZ0ANE-13 Weather Reports


time (UTC)temp
C
wind
direction
speed
KPH
gust
KPH
rain 1hr
cm
rain 24hr
cm
rain mn
cm
humidity
%
barometer
mb
20260507142003 25 159 6.4 11.3 0.00 0.00 0.00 39 1010.7
20260507140024 25 193 3.2 6.4 0.00 0.00 0.00 40 1010.9
20260507134024 26 189 3.2 6.4 0.00 0.00 0.00 36 1011.2
20260507132024 26 204 4.8 12.9 0.00 0.00 0.00 37 1011.3
20260507130003 26 155 1.6 4.8 0.00 0.00 0.00 39 1011.4
20260507124003 25 123 1.6 6.4 0.00 0.00 0.00 41 1011.9
20260507122003 25 252 1.6 6.4 0.00 0.00 0.00 42 1012.0
20260507120004 24 247 3.2 9.7 0.00 0.00 0.00 43 1012.3
20260507114003 25 234 1.6 3.2 0.00 0.00 0.00 47 1012.3
20260507112024 25 187 4.8 9.7 0.00 0.00 0.00 46 1012.4
20260507110003 23 170 8.0 12.9 0.00 0.00 0.00 52 1012.6
20260507104003 24 146 4.8 11.3 0.00 0.00 0.00 49 1013.0
20260507102024 24 256 1.6 4.8 0.00 0.00 0.00 49 1013.1
20260507100003 23 212 3.2 6.4 0.00 0.00 0.00 52 1013.3
20260507094003 22 150 3.2 4.8 0.00 0.00 0.00 53 1013.0
20260507092003 21 127 1.6 9.7 0.00 0.00 0.00 56 1013.0
20260507090004 21 76 1.6 6.4 0.00 0.00 0.00 59 1013.4
20260507084003 20 165 3.2 6.4 0.00 0.00 0.00 61 1013.8
20260507082003 20 132 3.2 4.8 0.00 0.00 0.00 66 1013.2
20260507080003 19 136 4.8 9.7 0.00 0.00 0.00 66 1013.6
20260507074003 19 186 4.8 11.3 0.00 0.00 0.00 68 1013.8
20260507072003 19 173 3.2 11.3 0.00 0.00 0.00 69 1013.9
20260507070007 18 194 4.8 6.4 0.00 0.00 0.00 72 1013.5
20260507064003 17 146 3.2 6.4 0.00 0.00 0.00 79 1013.6
20260507062003 16 159 3.2 3.2 0.00 0.00 0.00 80 1014.0
20260507060003 16 100 1.6 4.8 0.00 0.00 0.00 79 1014.1
20260507054003 15 340 1.6 3.2 0.00 0.00 0.00 85 1014.0
20260507052003 15 82 1.6 4.8 0.00 0.00 0.00 87 1014.0
20260507050003 14 169 1.6 1.6 0.00 0.00 0.00 90 1013.8
20260507044003 14 148 1.6 1.6 0.00 0.00 0.00 89 1013.7
20260507042003 14 0 0.0 0.0 0.00 0.00 0.00 88 1013.4
20260507040003 15 210 1.6 3.2 0.00 0.00 0.00 87 1013.1
20260507034003 15 223 1.6 3.2 0.00 0.00 0.00 85 1013.2
20260507032003 15 354 0.0 3.2 0.00 0.00 0.00 85 1013.1
20260507030003 15 59 1.6 4.8 0.00 0.00 0.00 86 1013.1
20260507024003 15 359 1.6 4.8 0.00 0.00 0.00 87 1013.4
20260507022003 15 87 1.6 1.6 0.00 0.00 0.00 86 1013.6
20260507014003 15 183 1.6 3.2 0.00 0.00 0.00 85 1013.5
20260507012024 16 18 1.6 1.6 0.00 0.00 0.00 79 1013.6
20260507010003 16 18 1.6 1.6 0.00 0.00 0.00 79 1013.3
20260507004003 16 13 3.2 4.8 0.00 0.00 0.00 79 1013.4
20260507002003 16 5 3.2 4.8 0.00 0.00 0.00 78 1013.4
20260507000003 16 3 3.2 4.8 0.00 0.00 0.00 78 1013.4
20260506234003 16 23 1.6 3.2 0.00 0.00 0.00 79 1013.7
20260506232003 16 0 0.0 0.0 0.00 0.00 0.00 77 1013.9
20260506230024 16 341 1.6 6.4 0.00 0.00 0.00 77 1013.9
20260506224003 16 43 1.6 3.2 0.00 0.00 0.00 78 1013.9
20260506222003 16 91 1.6 3.2 0.00 0.00 0.00 79 1014.2
20260506220024 16 0 0.0 0.0 0.00 0.00 0.00 76 1014.5
20260506214003 16 55 1.6 1.6 0.00 0.00 0.00 76 1014.2
20260506212003 17 26 1.6 4.8 0.00 0.00 0.00 74 1014.3
20260506210003 17 354 4.8 9.7 0.00 0.00 0.00 72 1014.3
20260506204003 17 349 4.8 9.7 0.00 0.00 0.00 68 1014.8
20260506202003 17 354 3.2 6.4 0.00 0.00 0.00 67 1015.1
20260506200003 18 181 0.0 1.6 0.00 0.00 0.00 62 1014.9
20260506194003 18 163 0.0 1.6 0.00 0.00 0.00 61 1014.9
20260506192024 18 200 1.6 4.8 0.00 0.00 0.00 61 1014.3
20260506190003 18 282 0.0 3.2 0.00 0.00 0.00 62 1014.0
20260506184024 18 145 0.0 3.2 0.00 0.00 0.00 62 1013.6
20260506182003 18 193 0.0 3.2 0.00 0.00 0.00 62 1013.6
20260506180004 18 119 3.2 4.8 0.00 0.00 0.00 62 1013.3
20260506174003 19 241 1.6 1.6 0.00 0.00 0.00 61 1013.3
20260506172024 19 213 1.6 6.4 0.00 0.00 0.00 60 1013.0
20260506170003 19 195 3.2 4.8 0.00 0.00 0.00 59 1012.7
20260506164003 20 182 4.8 6.4 0.00 0.00 0.00 58 1012.9
20260506162003 20 140 4.8 9.7 0.00 0.00 0.00 55 1013.0
20260506160003 20 182 3.2 6.4 0.00 0.00 0.00 54 1013.1
20260506154003 21 186 4.8 9.7 0.00 0.00 0.00 54 1013.2
20260506152003 22 184 8.0 9.7 0.00 0.00 0.00 45 1012.8
20260506150003 22 184 8.0 9.7 0.00 0.00 0.00 45 1012.9
20260506144003 22 184 8.0 9.7 0.00 0.00 0.00 45 1012.9